SCP
0 0 0 0 0 0 0 0 0 0 0 0 0 0 0 0 0 0 0 0 0 0 0 0 0 0 0 0 0 0 0 0 0 0 0 0 0 0 0 0 0 0 0 0
0 0 0 0 0 0 0 0 0 0 0 0 0 0 0 0 0 0 0 0 0 0 0 0 0 0 0 0 0 0 0 0 0 0 0 0 0 0 0 0 0 0 0 0
0 0 0 0 0 0 0 0 0 0 0 0 0 -0 0 0 0 0 0 0 0 0 0 0 0 0 0 0 0 0 0 0 0 0 0 0 0 0 0 0 0 0 0 0
0 0 0 0 0 0 0 0 0 0 0 0 0 -0 0 0 0 0 0 0 0 0 0 0 0 0 0 0 0 0 0 0 0 0 0 0 0 0 0 0 0 0 0 0
0 0 0 0 0 0 0 0 0 0 0 0 0 0 0 0 0 0 0 0 0 0 0 0 0 0 0 0 0 0 0 0 0 0 0 0 0 0 0 0 0 0 0 0
0 0 0 0 0 0 0 0 0 0 0 0 0 0 0 0 0 0 0 0 0 0 0 0 0 0 0 0 0 0 0 0 0 0 0 0 0 0 0 0 0 0 0 0
0 0 0 0 0 0 0 0 0 0 0 0 0 0 0 0 0 0 0 0 0 0 0 0 0 0 0 0 0 0 0 0 0 0 0 0 0 0 0 0 0 0 0 0
0 0 0 0 0 0 0 0 0 0 0 0 0 0 0 0 0 0 0 0 0 0 0 0 0 0 0 0 0 0 0 0 0 0 0 0 0 0 0 0 0 0 0 0
0 0 0 0 0 0 0 0 0 0 0 0 0 0 0 0 0 0 0 0 0 0 0 0 0 0 0 0 0 0 0 0 0 0 0 0 0 0 0 0 0 0 0 0
0 0 0 0 0 0 0 0 0 0 0 0 0 0 0 0 0 0 0 0 0 0 0 0 0 0 0 0 0 0 0 0 0 0 0 0 0 0 0 0 0 0 0 0
0 0 0 0 0 0 0 0 0 0 0 0 0 0 0 0 0 0 0 0 0 0 0 0 0 0 0 0 0 0 0 0 0 0 0 0 0 0 0 0 0 0 0 0
0 0 0 0 0 0 0 0 0 0 0 0 0 0 0 0 0 0 0 0 0 0 0 0 0 0 0 0 0 0 0 0 0 0 0 0 0 0 0 0 0 0 0 0
0 0 0 0 0 0 0 0 0 0 0 0 0 0 0 0 0 0 0 0 0 0 0 0 0 0 0 0 0 0 0 0 0 0 0 0 0 0 0 0 0 0 0 0
0 0 0 0 0 0 0 0 0 0 0 0 0 0 0 0 0 0 0 0 0 0 0 0 0 0 0 0 0 0 0 0 0 0 0 0 0 0 0 0 0 0 0 0
0 0 0 0 0 0 0 0 0 0 0 0 0 0 0 0 0 0 0 0 0 0 0 0 0 0 0 0 0 0 0 0 0 0 0 0 0 0 0 0 0 0 0 0
0 0 0 0 0 0 0 0 0 0 0 0 0 0 0 0 0 0 0 0 0 0 0 0 0 0 0 0 0 0 0 0 0 0 0 0 0 0 -0 0 0 0 0 0
0 0 0 0 0 0 0 0 0 0 0 0 0 0 0 0 0 0 0 0 0 0 0 0 0 0 0 0 0 0 0 0 0 0 0 0 0 0 0 0 0 0 0 0
0 0 0 0 0 0 0 0 0 0 0 0 0 0 0 0 0 0 0 0 0 0 0 0 0 0 0 0 0 0 0 0 0 0 0 0 0 0 0 0 0 0 0 0
0 0 0 0 0 0 0 0 0 0 0 0 0 0 0 0 0 0 0 0 0 0 0 0 0 0 0 0 0 0 0 0 0 0 0 0 0 0 0 0 0 0 0 0
0 0 0 0 0 0 0 0 0 0 0 0 0 0 0 0 0 0 0 0 0 0 0 0 0 0 0 0 0 0 0 0 0 0 0 0 0 0 0 0 0 0 0 0
0 0 0 0 0 0 0 0 0 0 0 0 0 0 0 0 0 0 0 0 0 0 0 0 0 0 0 0 0 0 0 0 0 0 0 0 0 0 0 0 0 0 0 0
0 0 0 0 0 0 0 0 0 0 0 0 0 -0 0 0 0 0 0 0 0 0 0 0 0 0 0 0 0 0 0 0 0 0 0 0 0 0 0 0 0 0 0 0
0 0 0 0 0 0 0 0 0 0 0 0 -0 0 0 0 0 0 0 0 0 0 0 0 0 0 0 0 0 0 0 0 0 0 0 0 0 0 0 0 0 0 0 0
0 0 0 0 0 0 0 0 0 0 0 0 0 0 0 0 0 0 0 0 0 0 0 0 0 0 0 0 0 0 0 0 0 0 0 0 0 0 0 0 0 0 0 0
0 0 0 0 0 0 0 0 0 0 0 0 0 0 0 0 0 0 0 0 0 0 0 0 0 0 0 0 0 0 0 0 0 0 0 0 0 0 0 0 0 0 0 0
0 0 0 0 0 0 0 0 0 0 0 0 0 0 0 0 0 0 0 0 0 0 0 0 0 0 0 0 0 0 0 0 0 0 0 0 0 0 0 0 0 0 0 0
Wind_Speed
1 3 4 6 7 4 3 2 4 5 3 2 5 9 8 6 3 4 5 4 3 2 1 1 1 2 2 2 2 1 2 1 2 1 1 2 1 1 1 2 2 2 2 2
2 4 7 3 3 3 3 4 4 4 2 2 4 9 7 5 4 5 5 4 4 2 1 2 2 2 3 2 2 2 2 2 1 1 1 1 2 1 2 2 2 2 2 1
6 4 4 4 3 4 5 6 5 4 4 2 2 7 5 4 2 2 2 3 3 4 3 0 2 2 2 2 2 1 1 2 2 2 2 2 2 2 2 1 1 2 1 1
5 4 2 3 4 5 6 4 4 3 1 3 1 5 7 4 3 3 3 2 2 2 2 1 1 1 1 1 1 2 2 2 2 2 2 3 2 1 0 0 1 1 2 2
4 2 3 5 5 5 4 2 2 3 2 3 2 4 9 2 4 6 4 3 3 3 3 2 1 1 1 1 1 2 2 3 3 2 2 2 2 1 1 1 1 1 1 2
4 2 3 4 2 4 2 2 2 2 2 4 6 6 8 5 7 4 3 3 3 3 3 2 1 1 2 2 2 2 3 3 3 3 2 2 2 2 2 1 1 0 0 1
3 3 2 1 2 1 2 4 2 3 2 8 3 5 10 6 4 5 5 4 3 3 3 2 1 1 2 2 2 2 3 3 2 3 3 2 1 2 1 1 1 1 0 0
3 5 4 2 4 5 4 6 6 6 6 5 3 8 7 4 2 2 3 3 3 3 3 3 2 2 1 1 2 2 2 2 2 2 2 2 2 1 1 0 0 1 1 1
4 5 1 2 2 6 4 5 4 3 1 3 6 6 6 2 2 2 2 3 4 4 4 4 3 2 1 1 1 1 1 1 2 2 2 2 2 1 1 0 0 0 0 0
4 4 3 1 1 1 4 4 3 4 4 5 6 6 6 5 7 5 4 4 4 4 3 3 2 2 1 1 1 1 1 1 1 1 1 1 1 1 1 1 1 1 1 0
3 4 3 1 6 7 4 3 4 4 4 5 5 8 6 7 7 7 6 5 5 5 4 3 3 2 2 1 1 1 1 1 1 1 1 1 1 1 1 1 1 1 1 0
3 3 4 6 4 3 4 6 6 5 6 5 5 9 2 3 4 4 5 4 4 4 4 4 3 2 2 1 1 0 1 1 1 1 1 1 1 1 1 1 1 1 1 1
4 4 1 4 2 1 3 4 4 3 3 4 6 10 2 1 1 1 3 3 3 3 3 3 3 2 2 2 1 0 1 1 1 1 1 1 1 1 1 2 2 2 1 1
4 4 7 9 6 4 5 6 6 5 5 7 10 11 8 5 4 3 2 3 3 3 4 3 3 2 2 1 1 1 0 0 1 1 1 1 1 1 2 2 2 2 1 1
4 5 6 8 6 4 7 9 9 11 11 10 11 11 12 8 6 4 3 2 2 3 4 4 4 3 2 1 1 1 0 0 0 0 0 1 1 1 2 2 2 2 1 1
3 4 3 6 6 5 9 12 12 13 12 13 13 15 10 5 2 2 3 3 4 5 5 4 3 3 3 3 2 1 1 1 0 1 1 1 1 1 1 2 2 2 2 1
4 4 3 6 3 3 11 13 12 10 8 10 14 13 5 3 4 5 5 5 5 5 5 4 4 4 3 3 3 3 2 1 1 1 1 1 1 1 1 2 2 2 2 2
7 6 3 2 0 10 11 4 9 10 10 10 8 6 5 6 4 4 4 5 5 5 5 5 4 4 3 2 2 1 1 1 1 1 1 1 1 2 2 2 2 2 2 2
7 7 4 3 5 11 9 4 6 7 9 7 8 6 4 2 0 3 2 3 5 5 5 4 4 3 3 3 2 2 1 1 1 1 2 2 1 2 2 2 2 2 2 2
3 5 5 5 6 10 8 3 2 3 7 5 6 6 4 1 2 5 2 2 3 2 2 2 2 2 3 2 2 2 2 1 2 2 2 2 2 2 2 2 3 2 2 2
5 5 8 8 8 11 6 2 3 5 8 2 5 6 4 5 6 4 2 2 2 1 1 2 3 3 3 3 2 2 2 3 2 2 2 2 2 2 2 2 2 2 2 2
10 8 9 7 8 12 3 5 7 7 1 1 3 4 5 6 5 3 2 2 1 1 1 2 2 2 1 2 3 3 3 2 1 1 2 2 2 2 2 2 2 2 2 2
9 9 7 10 9 3 5 5 5 2 3 3 3 4 4 5 5 3 2 2 2 2 2 2 2 2 1 2 3 4 3 1 1 2 2 2 2 2 2 2 2 2 2 2
4 2 3 5 7 5 4 4 3 3 4 4 3 3 3 4 4 3 3 2 1 1 2 2 2 2 3 2 3 3 2 1 2 3 3 3 2 2 2 2 2 2 2 2
6 5 4 6 6 3 4 5 5 4 3 3 2 2 3 4 3 3 3 2 2 2 1 2 3 4 4 3 3 3 2 2 3 3 3 3 3 3 3 2 3 3 3 4
5 7 8 9 6 6 6 5 4 4 4 4 3 2 2 3 3 3 3 3 2 2 2 2 3 3 4 3 4 3 3 3 3 4 3 3 3 3 3 3 3 5 6 7
Wind_Direction
120 106 203 213 204 209 189 206 258 265 275 268 255 269 278 276 242 238 246 230 219 225 272 20 22 32 41 38 57 81 81 74 98 118 128 126 118 106 89 85 77 94 111 135
84 235 233 220 213 232 241 262 270 290 289 257 271 277 279 263 237 224 223 217 212 189 45 27 24 39 50 47 45 66 65 75 92 119 148 130 125 108 95 83 74 71 82 111
191 232 220 189 205 219 237 228 240 262 319 314 314 297 273 267 242 235 219 208 195 176 176 143 29 30 51 45 34 48 58 62 63 67 87 84 77 67 55 54 66 51 68 88
230 254 202 183 211 198 243 232 222 238 275 281 168 281 275 246 261 252 244 214 206 187 162 164 109 29 37 28 28 43 60 61 60 77 100 115 120 120 121 152 83 64 60 61
239 224 194 208 218 189 227 226 220 237 217 272 232 228 274 246 245 247 236 221 206 189 173 168 169 150 58 48 60 52 66 59 54 70 99 119 103 109 89 70 71 66 56 56
244 244 203 215 209 187 174 59 28 38 89 255 218 201 263 225 221 226 226 218 204 184 177 171 142 86 56 48 61 66 73 60 52 63 76 105 109 100 88 77 92 97 73 54
282 259 257 155 122 110 111 98 31 337 290 248 217 218 248 240 219 209 205 201 200 185 176 164 135 103 77 60 56 64 76 64 51 61 65 70 101 122 129 149 182 181 136 46
211 257 219 190 173 183 194 161 171 206 233 272 256 233 250 250 207 187 178 176 172 186 184 175 173 160 141 101 76 77 83 71 53 55 52 52 58 93 125 150 209 213 214 237
195 248 255 210 188 153 165 201 186 157 249 268 255 264 286 231 200 187 173 176 192 200 196 187 179 162 148 125 102 106 106 71 56 53 50 50 45 45 34 6 308 239 260 260
172 248 272 263 104 221 177 162 132 161 189 247 266 248 233 219 223 210 201 204 207 199 193 186 174 156 137 114 74 63 92 86 39 43 40 33 18 5 355 6 355 333 291 277
172 197 269 220 197 197 173 183 180 181 195 197 254 260 223 213 211 207 210 207 203 197 196 185 172 154 132 112 91 73 63 57 36 25 22 24 3 355 0 360 320 302 276 244
182 171 237 242 245 219 198 197 174 185 228 218 240 266 256 209 208 198 205 207 204 193 192 182 168 148 141 142 129 95 48 51 22 7 13 4 355 353 350 341 333 328 308 281
159 155 279 319 304 251 230 219 202 185 171 206 223 262 294 340 292 217 197 203 201 182 180 178 169 174 187 191 185 165 60 23 16 29 24 4 357 348 330 320 325 330 318 298
151 176 198 221 236 204 234 235 211 184 208 228 233 254 273 273 268 269 244 216 192 185 180 178 184 190 193 188 176 164 140 26 19 17 11 344 335 331 329 327 325 322 318 295
155 212 230 252 258 234 238 239 221 216 219 223 245 249 258 257 248 244 234 211 202 196 191 192 195 193 187 180 174 171 218 287 317 313 294 294 318 332 339 334 328 327 328 317
168 207 229 264 255 244 257 248 231 230 230 238 255 261 263 269 245 226 221 206 208 211 208 206 201 198 197 194 193 196 232 251 243 232 262 289 315 333 331 326 332 336 333 324
182 172 202 258 286 323 260 234 216 217 218 213 234 249 270 260 236 221 215 214 218 218 214 208 208 208 207 204 196 204 217 224 212 228 265 287 296 308 314 326 332 326 320 315
181 178 193 231 88 238 246 200 199 216 231 220 231 253 248 239 240 232 214 210 221 216 213 213 210 207 201 187 181 180 175 187 205 234 266 285 295 306 315 320 314 312 309 300
190 175 180 188 231 267 282 242 195 208 246 225 227 244 255 256 328 277 242 215 217 214 211 206 199 190 175 173 169 155 168 192 230 260 272 276 280 286 290 290 292 294 296 298
173 171 178 190 210 239 250 235 209 162 259 240 212 228 233 176 233 258 255 251 253 230 193 180 165 152 162 170 159 163 194 211 244 263 274 273 268 264 267 268 275 282 279 279
173 188 204 213 229 254 256 239 126 182 244 225 197 214 211 213 225 246 255 249 240 210 171 150 153 171 180 164 162 191 213 231 243 257 274 278 275 267 266 272 271 267 269 281
181 187 201 195 219 247 212 149 185 219 241 208 209 214 215 229 242 248 239 235 204 173 154 153 165 197 192 169 172 208 234 245 243 246 255 267 275 273 271 268 275 270 252 254
199 196 193 199 218 232 165 193 220 213 226 237 227 227 215 229 239 243 235 221 202 191 185 177 179 205 226 200 192 220 249 239 235 253 257 264 273 276 267 255 258 266 255 243
239 229 200 232 248 242 230 240 243 231 231 243 240 228 208 227 239 237 235 223 209 208 196 185 183 214 241 238 239 241 242 212 216 239 253 257 258 267 269 264 255 249 247 246
207 182 211 245 261 272 245 230 235 240 238 245 245 219 214 222 235 230 231 225 219 234 222 201 208 228 243 244 249 251 236 202 222 241 247 252 252 253 257 259 251 252 251 242
192 190 203 231 218 215 235 224 214 213 227 227 225 240 234 211 226 227 231 225 216 225 227 226 232 241 252 251 256 254 233 210 211 234 243 245 248 249 252 260 277 269 264 269